FW8074 Weather Reports


Display with metric or nautical units.
time (UTC)temp
F
wind
direction
speed
MPH
gust
MPH
rain 1hr
in
rain 24hr
in
rain mn
in
humidity
%
barometer
mb
20260510034616 63 0 0.0 0.0 0.00 0.00 0.00 95 1009.4
20260510033059 64 0 0.0 0.0 0.00 0.00 0.00 95 1009.4
20260510031558 64 0 0.0 0.0 0.00 0.00 0.00 95 1009.5
20260510030059 64 0 0.0 0.0 0.00 0.00 0.00 94 1009.6
20260510024601 65 0 0.0 0.0 0.00 0.00 0.00 94 1009.7
20260510023057 65 0 0.0 0.0 0.00 0.00 0.00 93 1009.5
20260510021604 65 0 0.0 0.0 0.00 0.00 0.00 93 1009.4
20260510020058 66 0 0.0 0.0 0.00 0.00 0.00 92 1009.3
20260510014601 66 0 0.0 0.0 0.00 0.00 0.00 92 1009.2
20260510013117 67 0 0.0 0.0 0.00 0.00 0.00 91 1009.0
20260510011555 67 0 0.0 0.0 0.00 0.00 0.00 90 1008.7
20260510010056 68 0 0.0 0.0 0.00 0.00 0.00 89 1008.7
20260510004559 68 0 0.0 0.0 0.00 0.00 0.00 87 1008.2
20260510003106 69 0 0.0 0.0 0.00 0.00 0.00 86 1008.1
20260510001559 69 0 0.0 0.0 0.00 0.00 0.00 85 1007.6
20260510000127 70 0 0.0 0.0 0.00 0.00 0.00 83 1007.8
20260509234557 71 0 0.0 0.0 0.00 0.00 0.00 81 1007.6
20260509233058 72 0 0.0 0.0 0.00 0.00 0.00 80 1007.5
20260509231625 72 0 0.0 1.0 0.00 0.00 0.00 79 1007.4
20260509230109 73 289 0.0 1.0 0.00 0.00 0.00 78 1007.3
20260509224603 73 267 1.0 3.0 0.00 0.00 0.00 78 1007.3
20260509223103 74 284 1.0 3.0 0.00 0.00 0.00 77 1007.2
20260509221612 74 0 0.0 2.0 0.00 0.00 0.00 78 1007.3
20260509220057 74 283 2.0 5.0 0.00 0.00 0.00 76 1007.1
20260509214604 74 287 2.0 4.0 0.00 0.00 0.00 76 1007.2
20260509213058 74 299 2.0 6.0 0.00 0.00 0.00 75 1007.1
20260509211602 74 282 3.0 6.0 0.00 0.00 0.00 74 1007.0
20260509210057 74 261 2.0 5.0 0.00 0.00 0.00 75 1007.0
20260509204555 74 261 1.0 7.0 0.00 0.00 0.00 75 1006.9
20260509203056 74 280 4.0 8.0 0.00 0.00 0.00 74 1006.9
20260509201556 74 261 2.0 10.0 0.00 0.00 0.00 76 1007.0
20260509200109 75 258 2.0 4.0 0.00 0.00 0.00 75 1007.0
20260509194558 74 258 1.0 4.0 0.00 0.00 0.00 76 1007.2
20260509193058 73 282 2.0 6.0 0.00 0.00 0.00 77 1007.5
20260509191601 74 275 4.0 7.0 0.00 0.00 0.00 76 1007.9
20260509190057 74 292 3.0 8.0 0.00 0.00 0.00 76 1007.8
20260509184556 74 289 2.0 6.0 0.00 0.00 0.00 77 1007.6
20260509183109 73 286 2.0 7.0 0.00 0.00 0.00 77 1007.6
20260509181600 72 272 3.0 7.0 0.00 0.00 0.00 77 1007.9
20260509180103 72 279 3.0 6.0 0.00 0.00 0.00 77 1008.0
20260509174557 72 284 3.0 7.0 0.00 0.00 0.00 78 1007.9
20260509173100 72 247 2.0 4.0 0.00 0.00 0.00 79 1008.2
20260509171556 71 253 1.0 7.0 0.00 0.00 0.00 79 1008.4
20260509170057 71 278 3.0 7.0 0.00 0.00 0.00 80 1008.8
20260509164555 71 263 2.0 6.0 0.00 0.00 0.00 80 1008.7
20260509163101 71 263 3.0 7.0 0.00 0.00 0.00 80 1009.1
20260509161600 71 267 3.0 6.0 0.00 0.00 0.00 80 1009.2
20260509160055 71 205 3.0 7.0 0.00 0.00 0.00 81 1009.4
20260509154554 70 260 2.0 4.0 0.00 0.00 0.00 81 1009.1
20260509153056 70 257 3.0 6.0 0.00 0.00 0.00 81 1009.4
20260509151557 70 267 2.0 9.0 0.00 0.00 0.00 81 1009.3
20260509150057 70 256 2.0 4.0 0.00 0.00 0.00 82 1009.0
20260509144557 69 282 2.0 5.0 0.00 0.00 0.00 84 1009.3
20260509143059 67 289 0.0 3.0 0.00 0.00 0.00 86 1009.5
20260509141602 66 167 0.0 3.0 0.00 0.00 0.00 88 1009.4
20260509140105 64 0 0.0 0.0 0.00 0.00 0.00 89 1010.0
20260509134557 63 0 0.0 0.0 0.00 0.00 0.00 90 1010.0
20260509133056 62 178 0.0 4.0 0.00 0.00 0.00 91 1009.7
20260509131557 62 0 0.0 0.0 0.00 0.00 0.00 93 1010.0
20260509130057 60 0 0.0 0.0 0.00 0.00 0.00 93 1010.2
20260509124558 59 0 0.0 0.0 0.00 0.00 0.00 95 1010.4
20260509123118 59 0 0.0 0.0 0.00 0.00 0.00 95 1010.5
20260509121600 58 0 0.0 0.0 0.00 0.00 0.00 96 1010.6
20260509120058 57 0 0.0 0.0 0.00 0.00 0.00 96 1010.4
20260509114554 56 0 0.0 0.0 0.00 0.00 0.00 97 1010.6
20260509113055 56 0 0.0 0.0 0.00 0.00 0.00 97 1010.4
20260509111555 56 0 0.0 0.0 0.00 0.00 0.00 97 1010.2
20260509110053 55 0 0.0 0.0 0.00 0.00 0.00 97 1010.2
20260509104553 55 0 0.0 0.0 0.00 0.00 0.00 96 1009.8
20260509103103 55 0 0.0 0.0 0.00 0.00 0.00 96 1009.6
20260509101559 55 0 0.0 0.0 0.00 0.00 0.00 96 1009.3
20260509100059 55 0 0.0 0.0 0.00 0.00 0.00 95 1009.4
20260509094556 55 0 0.0 0.0 0.00 0.00 0.00 95 1009.4
20260509093057 55 0 0.0 0.0 0.00 0.00 0.00 95 1009.2
20260509091556 55 0 0.0 0.0 0.00 0.00 0.00 95 1009.3
20260509090100 55 0 0.0 0.0 0.00 0.00 0.00 95 1009.4
20260509084555 56 0 0.0 0.0 0.00 0.00 0.00 95 1009.5
20260509083059 56 0 0.0 0.0 0.00 0.00 0.00 94 1009.5
20260509081555 56 0 0.0 0.0 0.00 0.00 0.00 94 1009.4
20260509080059 56 0 0.0 0.0 0.00 0.00 0.00 93 1009.5
20260509074607 56 0 0.0 0.0 0.00 0.00 0.00 93 1009.9
20260509073057 57 0 0.0 0.0 0.00 0.00 0.00 92 1010.0
20260509071607 57 0 0.0 0.0 0.00 0.00 0.00 92 1010.3
20260509070057 57 0 0.0 0.0 0.00 0.00 0.00 92 1010.2
20260509064601 57 0 0.0 0.0 0.00 0.00 0.00 91 1010.4
20260509063100 57 0 0.0 0.0 0.00 0.00 0.00 91 1010.5
20260509061602 57 0 0.0 0.0 0.00 0.00 0.00 91 1011.1
20260509060104 57 0 0.0 0.0 0.00 0.00 0.00 91 1011.5
20260509054609 57 0 0.0 0.0 0.00 0.00 0.00 91 1011.6
20260509053106 57 0 0.0 0.0 0.00 0.00 0.00 90 1011.3
20260509051603 58 0 0.0 0.0 0.00 0.00 0.00 89 1011.4
20260509050058 58 0 0.0 0.0 0.00 0.00 0.00 89 1011.8
20260509044558 58 0 0.0 0.0 0.00 0.00 0.00 89 1012.1
20260509043100 58 0 0.0 0.0 0.00 0.00 0.00 88 1012.2
20260509041556 58 0 0.0 0.0 0.00 0.00 0.00 88 1012.5
20260509040055 58 0 0.0 0.0 0.00 0.00 0.00 86 1012.3